Weather in Kovarzino

Russia / Vologda Oblast     60°08′52″N   38°34′18″E
temp.,
°C
wind,
m/s
gust,
m/s
humid.,
%
clouds,
%
prec.,
mm/h
press.,
hPa
HPBL,
m
6 march, sat
sat600:00−17wnw23970 0.0 101240
03:00−17wnw239728 0.0 101431
06:00−19wnw22970 0.0 101320
09:00−16w23964 0.0 1014123
12:00−11wsw249280 0.1 1012313
15:00−8sw369090 0.1 1010498
18:00−9ssw3795100 0.1 1008243
21:00−10s4109598 0.1 1005331
7 march, sun
sun700:00−9s51291100 0.0 1000612
03:00−8s61393100 0.8 995878
06:00−7s61394100 1.3 991804
09:00−5s51195100 2.9 989663
12:00−4sse4895100 1.3 989651
15:00−3se4895100 2.5 989627
18:00−6ese4995100 1.4 990537
21:00−7ene4895100 2.6 991473
8 march, mon
mon800:00−9ne4994100 0.6 992444
03:00−10ne41093100 1.1 994503
06:00−11nne51292100 0.3 996604
09:00−12nne51191100 0.4 999653
12:00−12nne5989100 0.1 1001707
15:00−12n51090100 0.2 1004585
18:00−15n41093100 0.1 1007518
21:00−18n41195100 0.1 1010429
9 march, tue
tue900:00−21n3997100 0.0 1012275
03:00−25nnw379890 0.0 1014155
06:00−27n279710 0.0 1015148
09:00−25n25955 0.0 1017229
12:00−20n249053 0.0 1017398
15:00−17n248874 0.0 1018506
18:00−21n2296100 0.0 101820
21:00−25n239761 0.0 102019
10 march, wed
wed1000:00−27nne22980 0.0 102019
03:00−29nne12980 0.0 102119
06:00−30nne12990 0.0 102119
09:00−26ene12950 0.0 1021119
12:00−19ese12830 0.0 1020324
15:00−16se22770 0.0 1018489
18:00−20se229177 0.0 101720
21:00−23sse239451 0.0 101645